[[{"header":{"parameterUnit":"m.s-1","parameterCategory":1,"la1":30.2991,"la2":30.254,"lo1":-89.0895,"lo2":-89.0444,"dy":0.0017,"dx":0.0017,"nx":28,"ny":28,"refTime":"2025-03-09T21:00:00:Z","depth":0,"parameterNumber":2,"parameterNumberName":"U-component_of_WINDS"},"data":[0,0,0,0,0,0,0,0,0,0,0,0,0,0,0,0,0,0,0,0,0,0,0,0,0,0,0,0,0,0,0,0,0,0,0,0,0,0,0,0,0,0,0,0,0,0,0,0,0,0,0,0,0,0,0,0,0,0,7.7007,7.7009,0,7.7205,7.7207,7.7209,7.7145,7.7141,7.7137,7.7133,7.7337,7.7346,7.7355,0,0,0,0,0,0,0,0,0,0,0,0,0,7.6578,7.6587,7.7007,7.701,7.7012,7.7204,7.7207,7.721,7.7146,7.7141,7.7136,7.7131,7.7334,7.7345,7.7356,0,0,0,0,0,0,0,0,0,0,0,0,0,7.6769,7.6589,7.7007,7.7003,7.7005,7.7204,7.7207,7.721,7.7147,7.7141,7.7134,7.7128,7.733,7.7344,7.7358,7.7572,0,0,7.7401,7.7407,0,0,0,0,0,0,0,0,7.6758,7.6785,7.7001,7.7004,7.7006,7.7144,7.713,7.7332,7.7149,7.7093,7.7133,7.7125,7.7278,7.7296,7.7347,7.7581,7.759,7.7402,7.741,7.7416,7.742,0,0,0,0,0,0,0,7.6745,7.6776,7.7085,7.7005,7.7008,7.6993,7.7013,7.7168,7.7219,7.7098,7.7093,7.7118,7.7278,7.7333,7.7351,7.7593,7.7401,7.7414,7.7423,7.7428,7.8016,7.8023,0,0,0,0,0,0,7.673,7.6766,7.7079,7.7091,7.6864,7.7006,7.7028,7.7106,7.7217,7.7228,7.7123,7.7114,7.7313,7.7335,7.7358,7.7618,7.7416,7.743,7.7438,7.8009,7.8017,7.8025,0,0,0,0,0,0,7.6721,7.6759,7.7071,7.6927,7.6966,7.702,7.7108,7.7113,7.7169,7.7236,7.7245,7.717,7.7308,7.7338,7.752,7.7624,7.7436,7.7449,7.8,7.8011,7.8021,7.8137,0,0,0,0,0,0,7.6709,7.6756,7.6837,7.693,7.6974,7.7229,7.7114,7.7122,7.7193,7.7183,7.7283,7.7293,7.7306,7.7499,7.7534,7.764,7.746,7.7991,7.8005,7.8018,7.8124,7.8151,7.8173,0,0,0,0,0,7.6694,7.6862,7.6841,7.688,7.7076,7.7235,7.726,7.727,7.7201,7.7284,7.7328,7.729,7.7607,7.7518,7.7556,7.7668,7.7985,7.8001,7.8017,7.8113,7.8146,7.8173,0,0,0,0,0,0,7.678,7.6874,7.6852,7.7055,7.7137,7.7223,7.7328,7.7304,7.7408,7.7395,7.7404,7.7427,7.7613,7.7659,7.7558,7.7883,7.7786,7.781,7.7846,7.7877,7.7901,7.7886,7.7471,0,0,0,0,0,7.6823,7.6943,7.7018,7.719,7.7232,7.7273,7.7343,7.7344,7.743,7.7464,7.7521,7.7607,7.7726,7.7804,7.7917,7.8131,7.8152,7.8227,7.8251,7.8271,7.8292,7.8411,7.8445,7.8078,7.8078,7.8077,0,0,7.6912,7.6978,7.7053,7.7209,7.7273,7.7398,7.7303,7.7439,7.7532,7.7485,7.766,7.7705,7.7801,7.8,7.8091,7.8044,7.8399,7.8292,7.8307,7.8317,7.8431,7.8465,7.8496,7.8089,7.8087,7.8085,0,0,7.7138,7.72,7.735,7.7416,7.7515,7.7541,7.7577,7.7668,7.7696,7.7872,7.7839,7.7951,7.8155,7.8226,7.8288,7.8544,7.8514,7.8581,7.8708,7.8823,7.8852,7.8878,7.897,7.9003,7.8602,7.8602,7.8602,0,7.7237,7.7423,7.743,7.757,7.764,7.7603,7.7757,7.7821,7.7951,7.8001,7.7947,7.8204,7.8266,7.8482,7.8544,7.8596,7.8639,7.8569,7.8847,7.8873,7.8897,7.8986,7.902,7.861,7.8609,7.8608,7.8607,0,7.754,7.767,7.778,7.7907,7.7989,7.8135,7.8166,7.8249,7.8244,7.8276,7.8457,7.853,7.8658,7.8709,7.8705,7.8926,7.8894,7.8844,7.8746,7.894,7.9023,7.9057,7.862,7.8618,7.8615,7.8614,0,0,7.7825,7.7955,7.7996,7.8054,7.816,7.8261,7.8406,7.8531,7.8603,7.8695,7.8817,7.8992,7.8947,7.9018,7.9022,7.9123,7.9323,7.9061,7.9063,7.9108,7.9572,7.9609,7.9648,7.9303,7.931,7.9315,7.9564,0,7.8061,7.8315,7.8327,7.8558,7.8679,7.8647,7.8774,7.8854,7.8889,7.8997,7.9036,7.916,7.909,7.9133,7.9232,7.9277,7.9416,7.926,7.9419,7.9424,7.9396,7.9691,7.9731,7.9963,7.9596,7.9602,7.9606,0,7.837,7.8471,7.8715,7.8806,7.8857,7.897,7.9087,7.9191,7.9282,7.93,7.9381,7.9371,7.9521,7.9418,7.9626,7.9519,7.9585,7.9618,7.9627,7.9642,7.9527,7.9716,8.0036,8.0072,7.9657,7.9653,7.9649,0,7.8555,7.8753,7.8924,7.8975,7.9085,7.9165,7.9215,7.9299,7.9374,7.9477,7.9526,7.9644,7.971,7.9802,7.9825,7.9748,8.0033,7.9932,8.0054,8.0054,8.0115,8.0111,8.0452,8.0157,8.0157,8.0156,8.0155,0,7.8817,7.8968,7.9009,7.9115,7.9283,7.9296,7.9463,7.9507,7.9583,7.9697,7.9677,7.9785,7.9808,7.9922,7.9941,8.0111,8.014,8.016,8.0164,8.0163,8.016,8.0206,8.0191,8.0165,8.0163,8.0161,8.016,0,7.9052,7.9086,7.9271,7.936,7.9386,7.9507,7.9583,7.9686,7.9718,7.9864,7.9899,7.9951,8.0084,8.0116,8.0274,8.0287,8.0488,8.0476,8.0458,8.0457,8.0577,8.0566,8.096,8.1012,8.0683,8.0686,8.0688,0,7.9218,7.9333,7.9435,7.951,7.9564,7.9685,7.9761,7.9779,7.986,7.9973,8.0062,8.0193,8.0298,8.0512,8.0564,8.0686,8.0677,8.0807,8.0695,8.0691,8.068,8.0673,8.0685,8.0828,8.0831,8.0834,8.0836,0,7.9509,7.952,7.963,7.9748,7.984,7.9934,8.0023,8.0086,8.0116,8.0209,8.0344,8.0426,8.0588,8.0718,8.084,8.0893,8.0871,8.0871,8.0906,8.0906,8.0891,8.0902,8.0516,8.0862,8.086,8.0858,8.0856,8.0855,7.9715,7.9816,7.9904,8.0029,8.0098,8.0182,8.0283,8.0329,8.0442,8.0574,8.0578,8.0726,8.0816,8.0978,8.1038,8.1155,8.1115,8.1165,8.1178,8.119,8.1201,8.0872,8.1177,8.1176,8.1176,8.1175,8.1175,0,8.0005,8.006,8.0175,8.0301,8.0399,8.0369,8.0467,8.0552,8.0682,8.0767,8.0871,8.1028,8.1155,8.1218,8.1344,8.1425,8.1419,8.1458,8.1452,8.1465,8.1229,8.1187,8.1461,8.1461,8.1461,8.1461,8.1461,8.1461,8.0168,8.0338,8.036,8.0566,8.062,8.0764,8.0823,8.0901,8.0969,8.1145,8.125,8.129,8.1367,8.1498,8.1614,8.1629,8.1677,8.1722,8.1732,8.1511,8.1481,8.1454,8.1414,8.1732,8.1732,8.1959,8.1961,8.1962]},{"header":{"parameterUnit":"m.s-1","parameterCategory":1,"la1":30.2991,"la2":30.254,"lo1":-89.0895,"lo2":-89.0444,"dy":0.0017,"dx":0.0017,"nx":28,"ny":28,"refTime":"2025-03-09T21:00:00:Z","depth":0,"parameterNumber":3,"parameterNumberName":"V-component_of_WINDS"},"data":[0,0,0,0,0,0,0,0,0,0,0,0,0,0,0,0,0,0,0,0,0,0,0,0,0,0,0,0,0,0,0,0,0,0,0,0,0,0,0,0,0,0,0,0,0,0,0,0,0,0,0,0,0,0,0,0,0,0,-3.9213,-3.9213,0,-3.9305,-3.9306,-3.9307,-3.9276,-3.9274,-3.9272,-3.927,-3.9364,-3.9368,-3.9373,0,0,0,0,0,0,0,0,0,0,0,0,0,-3.9011,-3.9015,-3.9212,-3.9214,-3.9215,-3.9304,-3.9306,-3.9307,-3.9276,-3.9274,-3.9271,-3.9269,-3.9363,-3.9368,-3.9373,0,0,0,0,0,0,0,0,0,0,0,0,0,-3.91,-3.9016,-3.9212,-3.921,-3.9211,-3.9304,-3.9306,-3.9307,-3.9277,-3.9274,-3.9271,-3.9268,-3.9361,-3.9367,-3.9374,-3.9474,0,0,-3.9394,-3.9397,0,0,0,0,0,0,0,0,-3.9095,-3.9108,-3.9209,-3.921,-3.9211,-3.9276,-3.9269,-3.9363,-3.9277,-3.9252,-3.927,-3.9266,-3.9337,-3.9345,-3.9369,-3.9479,-3.9483,-3.9394,-3.9398,-3.9401,-3.9403,0,0,0,0,0,0,0,-3.9089,-3.9103,-3.9249,-3.9211,-3.9212,-3.9205,-3.9214,-3.9287,-3.931,-3.9254,-3.9252,-3.9263,-3.9337,-3.9363,-3.9371,-3.9484,-3.9394,-3.94,-3.9404,-3.9407,-3.9683,-3.9686,0,0,0,0,0,0,-3.9082,-3.9099,-3.9246,-3.9252,-3.9145,-3.9211,-3.9221,-3.9258,-3.9309,-3.9314,-3.9265,-3.9261,-3.9353,-3.9364,-3.9374,-3.9497,-3.9401,-3.9407,-3.9411,-3.9679,-3.9684,-3.9687,0,0,0,0,0,0,-3.9078,-3.9096,-3.9242,-3.9175,-3.9193,-3.9218,-3.9259,-3.9261,-3.9287,-3.9318,-3.9322,-3.9288,-3.9351,-3.9365,-3.945,-3.95,-3.941,-3.9416,-3.9675,-3.9681,-3.9685,-3.9742,0,0,0,0,0,0,-3.9072,-3.9094,-3.9132,-3.9176,-3.9196,-3.9316,-3.9262,-3.9265,-3.9299,-3.9294,-3.934,-3.9345,-3.935,-3.9441,-3.9457,-3.9507,-3.9421,-3.9671,-3.9678,-3.9684,-3.9736,-3.9748,-3.9759,0,0,0,0,0,-3.9065,-3.9144,-3.9135,-3.9153,-3.9245,-3.9319,-3.9331,-3.9336,-3.9303,-3.9342,-3.9362,-3.9343,-3.9492,-3.945,-3.9467,-3.952,-3.9668,-3.9676,-3.9683,-3.973,-3.9746,-3.9759,0,0,0,0,0,0,-3.9106,-3.915,-3.914,-3.9235,-3.9274,-3.9314,-3.9363,-3.9351,-3.94,-3.9394,-3.9397,-3.9408,-3.9495,-3.9516,-3.9469,-3.9621,-3.9575,-3.9587,-3.9605,-3.9619,-3.9631,-3.9624,-3.9427,0,0,0,0,0,-3.9126,-3.9183,-3.9218,-3.9299,-3.9319,-3.9338,-3.937,-3.9371,-3.9411,-3.9427,-3.9453,-3.9493,-3.9548,-3.9585,-3.9638,-3.9738,-3.9749,-3.9784,-3.9795,-3.9805,-3.9815,-3.9871,-3.9888,-3.9712,-3.9712,-3.9712,0,0,-3.9168,-3.9199,-3.9235,-3.9308,-3.9338,-3.9397,-3.9352,-3.9416,-3.946,-3.9437,-3.9519,-3.954,-3.9584,-3.9678,-3.972,-3.9698,-3.9866,-3.9815,-3.9822,-3.9827,-3.9881,-3.9897,-3.9912,-3.9718,-3.9717,-3.9716,0,0,-3.9276,-3.9304,-3.9376,-3.9407,-3.9453,-3.9465,-3.9482,-3.9525,-3.9538,-3.962,-3.9604,-3.9657,-3.9752,-3.9785,-3.9814,-3.9936,-3.9921,-3.9953,-4.0014,-4.0069,-4.0082,-4.0095,-4.0139,-4.0155,-3.9963,-3.9963,-3.9963,0,-3.9322,-3.941,-3.9414,-3.948,-3.9513,-3.9495,-3.9567,-3.9597,-3.9658,-3.9682,-3.9656,-3.9776,-3.9805,-3.9907,-3.9937,-3.9961,-3.9981,-3.9948,-4.008,-4.0092,-4.0104,-4.0146,-4.0163,-3.9966,-3.9966,-3.9966,-3.9965,0,-3.9466,-3.9528,-3.958,-3.964,-3.9678,-3.9747,-3.9761,-3.9801,-3.9798,-3.9813,-3.9898,-3.9932,-3.9992,-4.0016,-4.0013,-4.0118,-4.0103,-4.0079,-4.0032,-4.0124,-4.0164,-4.018,-3.9972,-3.997,-3.9969,-3.9968,0,0,-3.9601,-3.9663,-3.9682,-3.971,-3.976,-3.9807,-3.9876,-3.9935,-3.9969,-4.0012,-4.007,-4.0152,-4.013,-4.0163,-4.0165,-4.0213,-4.0308,-4.0182,-4.0184,-4.0205,-4.0427,-4.0445,-4.0464,-4.0298,-4.0301,-4.0304,-4.0423,0,-3.9714,-3.9834,-3.9839,-3.9949,-4.0007,-3.9991,-4.0051,-4.0088,-4.0105,-4.0156,-4.0174,-4.0232,-4.0198,-4.0219,-4.0265,-4.0286,-4.0353,-4.0278,-4.0353,-4.0356,-4.0343,-4.0485,-4.0504,-4.0616,-4.0439,-4.0441,-4.0443,0,-3.986,-3.9909,-4.0024,-4.0067,-4.0092,-4.0145,-4.02,-4.025,-4.0292,-4.0301,-4.0339,-4.0333,-4.0404,-4.0355,-4.0453,-4.0402,-4.0434,-4.0449,-4.0453,-4.0461,-4.0406,-4.0497,-4.0651,-4.0668,-4.0468,-4.0466,-4.0464,0,-3.9949,-4.0043,-4.0124,-4.0148,-4.02,-4.0238,-4.0262,-4.0301,-4.0337,-4.0385,-4.0409,-4.0464,-4.0495,-4.0539,-4.0549,-4.0512,-4.0648,-4.0599,-4.0658,-4.0658,-4.0687,-4.0686,-4.0849,-4.0706,-4.0706,-4.0706,-4.0705,0,-4.0074,-4.0146,-4.0165,-4.0215,-4.0296,-4.0301,-4.0381,-4.0401,-4.0437,-4.0492,-4.0481,-4.0533,-4.0542,-4.0596,-4.0605,-4.0686,-4.0699,-4.0709,-4.071,-4.071,-4.0709,-4.0731,-4.0724,-4.071,-4.0709,-4.0708,-4.0707,0,-4.0187,-4.0202,-4.0291,-4.0333,-4.0345,-4.0403,-4.0439,-4.0487,-4.0503,-4.0572,-4.0589,-4.0613,-4.0676,-4.069,-4.0765,-4.077,-4.0867,-4.086,-4.0853,-4.0852,-4.0911,-4.0905,-4.1095,-4.1121,-4.096,-4.0961,-4.0962,0,-4.0266,-4.0321,-4.0369,-4.0405,-4.0431,-4.0488,-4.0525,-4.0533,-4.0571,-4.0625,-4.0667,-4.0729,-4.0779,-4.0881,-4.0905,-4.0963,-4.0958,-4.102,-4.0967,-4.0965,-4.096,-4.0957,-4.0964,-4.1031,-4.1033,-4.1034,-4.1035,0,-4.0406,-4.0411,-4.0464,-4.052,-4.0564,-4.0608,-4.0651,-4.0681,-4.0695,-4.0739,-4.0803,-4.0842,-4.0919,-4.0981,-4.1039,-4.1063,-4.1052,-4.1052,-4.1069,-4.107,-4.1064,-4.1069,-4.0882,-4.1048,-4.1046,-4.1046,-4.1045,-4.1044,-4.0505,-4.0554,-4.0596,-4.0655,-4.0688,-4.0728,-4.0777,-4.0798,-4.0852,-4.0915,-4.0916,-4.0987,-4.1029,-4.1106,-4.1134,-4.119,-4.1171,-4.1195,-4.1201,-4.1207,-4.1213,-4.1054,-4.12,-4.12,-4.12,-4.12,-4.1199,0,-4.0646,-4.0672,-4.0726,-4.0787,-4.0834,-4.0819,-4.0865,-4.0906,-4.0968,-4.1009,-4.1058,-4.1133,-4.1193,-4.1223,-4.1283,-4.1322,-4.1319,-4.1338,-4.1335,-4.1341,-4.1226,-4.1206,-4.1339,-4.1339,-4.1339,-4.1339,-4.1339,-4.1339,-4.0724,-4.0806,-4.0816,-4.0915,-4.094,-4.101,-4.1038,-4.1075,-4.1107,-4.1191,-4.1242,-4.126,-4.1297,-4.1359,-4.1415,-4.1422,-4.1445,-4.1467,-4.1472,-4.1364,-4.1349,-4.1336,-4.1317,-4.1471,-4.1471,-4.1582,-4.1583,-4.1584]}]]